Regional Weather Roundup
Issued by NWS

Home | Current Version | Previous Version | Graphics & Text | Print | Product List | Glossary On
Versions: 1 2 3 4 5 6 7 8 9 10 11 12 13 14 15 16 17 18 19 20 21 22 23 24 25 26 27 28 29 30 31 32 33 34 35 36 37 38 39 40 41 42 43 44 45 46 47 48 49 50
000
ASUS43 KLMK 270102
RWRKY
KENTUCKY REGIONAL WEATHER ROUNDUP
NATIONAL WEATHER SERVICE LOUISVILLE KY
900 PM EDT THU MAR 26 2015

NOTE "FAIR" INDICATES FEW OR NO CLOUDS BELOW 12,000 FEET
WITH NO SIGNIFICANT WEATHER AND/OR OBSTRUCTIONS TO VISIBILITY.

KYZ001>023-026-027-061>063-070>075-270200-
WESTERN AND SOUTH CENTRAL KENTUCKY

CITY           SKY/WX    TMP DP  RH WIND       PRES   REMARKS
PADUCAH        CLEAR     41  33  73 N6        30.04R
HENDERSON      PTCLDY    43  32  65 N5        30.01S
OWENSBORO      MOCLDY    42  35  76 N6        30.00F
HOPKINSVILLE   CLOUDY    41  38  87 N5        30.00R
BOWLING GREEN  CLOUDY    42  38  85 NW7       29.99R
GLASGOW        NOT AVBL
$$

KYZ024-025-028>034-038-045-046-053-270200-
NORTH CENTRAL KENTUCKY

CITY           SKY/WX    TMP DP  RH WIND       PRES   REMARKS
LOUISVILLE/SDF CLOUDY    43  36  76 N8        29.99R
LOUISVILLE/LOU CLOUDY    43  35  73 NW5       29.99R
FORT KNOX      CLOUDY    40  36  83 NW3       29.97R
$$

KYZ035>037-039>044-047>052-055>060-089>105-270200-
NORTHEAST KENTUCKY

CITY           SKY/WX    TMP DP  RH WIND       PRES   REMARKS
LEXINGTON      LGT RAIN  41  38  89 NW5       29.96R
COVINGTON      CLOUDY    41  33  73 NW8       29.95S
FRANKFORT      CLOUDY    42  37  82 NW8       29.96R
$$

KYZ054-064>069-076>088-106>120-270200-
SOUTHEAST KENTUCKY

CITY           SKY/WX    TMP DP  RH WIND       PRES   REMARKS
JACKSON        LGT RAIN  43  41  93 VRB5      29.92R
LONDON         LGT RAIN  45  39  79 N9        29.93S
SOMERSET       NOT AVBL
MIDDLESBORO    CLOUDY    47  43  87 N6        29.89R
MONTICELLO     CLOUDY    43  41  93 N8        30.00R FOG
$$




USA.gov is the U.S. government's official web portal to all federal, state and local government web resources and services.